Location: Zapote
(9.9191°N, 84.0597°W)
Time: 18:02:35
(UTC-06:00)

Transit 2A - Pass Details

Date: 04 March 2021
Orbit: 602 x 957 km, 66.7° (Epoch: 16 April)

Event Time Altitude Azimuth Distance (km) Brightness Sun altitude
Rises 17:58:12 0° 244° (WSW) 3,487 11.0 -3.6°
Reaches altitude 10° 18:03:27 10° 283° (WNW) 2,446 10.1 -4.9°
Maximum altitude 18:04:22 10° 292° (WNW) 2,401 9.7 -5.1°
Drops below altitude 10° 18:05:16 10° 302° (WNW) 2,407 9.5 -5.3°
Sets 18:10:12 0° 343° (NNW) 3,220 9.4 -6.5°
